Terminal Aerodrome Forecast
Issued by NWS Wilmington, OH

Current Version | Previous Version | Graphics & Text | Print | Product List | Glossary On
Versions: 1 2 3 4 5 6 7 8 9 10 11 12 13 14 15 16 17 18 19 20 21 22 23 24 25
000
FTUS41 KILN 231100
TAFILN
TAF
KILN 231135Z 2312/2412 16007KT 5SM BR OVC012
      TEMPO 2314/2316 OVC008
     FM232200 12005KT 5SM BR VCSH OVC007
     FM240800 15011KT 5SM -SHRA BR OVC005=

USA.gov is the U.S. government's official web portal to all federal, state and local government web resources and services.